Overview Statistics Trail Chart Weather Telemetry Raw packets
 

This is the latest recevied weather packets stored in our database for station/object ac2ev. If no packets are shown the sender has not sent any weather packets the latest 10 day(s).

<< 96 97 98 99 100 101 102 >>
Time Temp. Humidity Pressure Rain* Wind** Luminosity Snow
1787934187 19.44° C 62% 1020.5 hPa 0 mm - - -
1787933894 19.44° C 62% 1020.5 hPa 0 mm - - -
1787933587 20° C 67% 1020.5 hPa 0 mm - - -
1787933285 19.44° C 66% 1020.5 hPa 0 mm - - -
1787932985 19.44° C 67% 1020.5 hPa 0 mm - - -
1787932687 19.44° C 66% 1020.6 hPa 0 mm - - -
1787932386 19.44° C 68% 1020.5 hPa 0 mm - - -
1787932086 19.44° C 67% 1020.4 hPa 0 mm - - -
1787931785 19.44° C 67% 1020.4 hPa 0 mm - - -
1787931487 18.89° C 68% 1020.4 hPa 0 mm - - -
1787931188 18.89° C 69% 1020.4 hPa 0 mm - - -
1787930887 18.89° C 71% 1020.3 hPa 0 mm - - -
1787930585 18.89° C 70% 1020.4 hPa 0 mm - - -
1787930287 18.33° C 74% 1020.4 hPa 0 mm - - -
1787930055 18.33° C 73% 1020.3 hPa 0 mm - - -
1787929683 18.33° C 72% 1020.4 hPa 0 mm - - -
1787929456 18.33° C 74% 1020.3 hPa 0 mm - - -
1787929083 17.78° C 74% 1020.3 hPa 0 mm - - -
1787928783 17.78° C 75% 1020.1 hPa 0 mm - - -
1787928484 17.78° C 76% 1020.1 hPa 0 mm - - -
1787928257 17.78° C 77% 1020.1 hPa 0 mm - - -
1787927884 17.78° C 79% 1020.1 hPa 0 mm - - -
1787927582 17.22° C 80% 1020.1 hPa 0 mm - - -
1787927284 17.78° C 80% 1020 hPa 0 mm - - -
1787926982 17.78° C 80% 1019.9 hPa 0 mm - - -

* Rain latest hour (hover to see other rain measurements)
** Current wind speed in m/s (hover to see current wind gust speed)